Tracking 30923 objects as of 1-Jul-2025
HD Live streaming from Space Station
objects crossing your sky now

EKRAN 2 DEB

Track EKRAN 2 DEB now!


NORAD ID: 12996
Int'l Code: 1977-092J
Perigee: 35,786.7 km
Apogee: 35,933.2 km
Inclination: 5.2 °
Period: 1,439.5 minutes
Semi major axis: 42230 km
RCS: 0.3162 m2 (medium)
Launch date: September 20, 1977
Source: Commonwealth of Independent States (former USSR) (CIS)
Launch site: TYURATAM MISSILE AND SPACE COMPLEX (TTMTR)

Note: This is SATELLITE DEBRIS
Your satellite tracking list
CZ-3B DEB
Track 1 satellite(s)




NASA's NSSDC Master Catalog

Two Line Element Set (TLE):
1 12996U 77092J   25181.57126962  .00000118  00000-0  00000-0 0  9997
2 12996   5.2090 279.5334 0017352 262.0994 163.9561  1.00036090 80994
Source of the keplerian elements: AFSPC